Time,TemperatureF,DewpointF,PressureIn,WindDirection,WindDirectionDegrees,WindSpeedMPH,WindSpeedGustMPH,Humidity,HourlyPrecipIn,Conditions,Clouds,dailyrainin,SolarRadiationWatts/m^2,SoftwareType,DateUTC
2013-01-30 00:01:00,-5.0,-11.0,-100.00,SSW,208,1.0,8.0,76,0.00,,,0.00,0.000000,,2013-01-30 07:01:00,
2013-01-30 00:11:00,-5.0,-11.0,-100.00,SSW,208,1.0,8.0,76,0.00,,,0.00,0.000000,,2013-01-30 07:11:00,
2013-01-30 00:21:00,-5.0,-11.0,-100.00,SSW,208,1.0,8.0,76,0.00,,,0.00,0.000000,,2013-01-30 07:21:00,
2013-01-30 00:31:00,-5.0,-11.0,-100.00,SSW,208,1.0,8.0,76,0.00,,,0.00,0.000000,,2013-01-30 07:31:00,
2013-01-30 00:41:00,-5.0,-11.0,-100.00,SSW,208,1.0,8.0,76,0.00,,,0.00,0.000000,,2013-01-30 07:41:00,
2013-01-30 01:01:00,-5.0,-11.0,-100.00,SSW,207,2.0,6.0,76,0.00,,,0.00,0.000000,,2013-01-30 08:01:00,
2013-01-30 01:11:00,-5.0,-11.0,-100.00,SSW,207,2.0,6.0,76,0.00,,,0.00,0.000000,,2013-01-30 08:11:00,
2013-01-30 01:21:00,-5.0,-11.0,-100.00,SSW,207,2.0,6.0,76,0.00,,,0.00,0.000000,,2013-01-30 08:21:00,
2013-01-30 01:32:00,-5.0,-11.0,-100.00,SSW,207,2.0,6.0,76,0.00,,,0.00,0.000000,,2013-01-30 08:32:00,
2013-01-30 01:41:00,-5.0,-11.0,-100.00,SSW,207,2.0,6.0,76,0.00,,,0.00,0.000000,,2013-01-30 08:41:00,
2013-01-30 02:01:00,-4.0,-10.0,-100.00,SSE,165,0.0,6.0,74,0.00,,,0.00,0.000000,,2013-01-30 09:01:00,
2013-01-30 02:11:00,-4.0,-10.0,-100.00,SSE,165,0.0,6.0,74,0.00,,,0.00,0.000000,,2013-01-30 09:11:00,
2013-01-30 02:21:00,-4.0,-10.0,-100.00,SSE,165,0.0,6.0,74,0.00,,,0.00,0.000000,,2013-01-30 09:21:00,
2013-01-30 02:31:00,-4.0,-10.0,-100.00,SSE,165,0.0,6.0,74,0.00,,,0.00,0.000000,,2013-01-30 09:31:00,
2013-01-30 02:41:00,-4.0,-10.0,-100.00,SSE,165,0.0,6.0,74,0.00,,,0.00,0.000000,,2013-01-30 09:41:00,
2013-01-30 03:01:00,-3.0,-9.0,-100.00,South,179,1.0,6.0,75,0.00,,,0.00,0.000000,,2013-01-30 10:01:00,
2013-01-30 03:11:00,-3.0,-9.0,-100.00,South,179,1.0,6.0,75,0.00,,,0.00,0.000000,,2013-01-30 10:11:00,
2013-01-30 03:21:00,-3.0,-9.0,-100.00,South,179,1.0,6.0,75,0.00,,,0.00,0.000000,,2013-01-30 10:21:00,
2013-01-30 03:31:00,-3.0,-9.0,-100.00,South,179,1.0,6.0,75,0.00,,,0.00,0.000000,,2013-01-30 10:31:00,
2013-01-30 03:41:00,-3.0,-9.0,-100.00,South,179,1.0,6.0,75,0.00,,,0.00,0.000000,,2013-01-30 10:41:00,
2013-01-30 04:02:00,-3.0,-8.0,-100.00,South,170,2.0,5.0,77,0.00,,,0.00,0.000000,,2013-01-30 11:02:00,
2013-01-30 04:11:00,-3.0,-8.0,-100.00,South,170,2.0,5.0,77,0.00,,,0.00,0.000000,,2013-01-30 11:11:00,
2013-01-30 04:21:00,-3.0,-8.0,-100.00,South,170,2.0,5.0,77,0.00,,,0.00,0.000000,,2013-01-30 11:21:00,
2013-01-30 04:32:00,-3.0,-8.0,-100.00,South,170,2.0,5.0,77,0.00,,,0.00,0.000000,,2013-01-30 11:32:00,
2013-01-30 04:41:00,-3.0,-8.0,-100.00,South,170,2.0,5.0,77,0.00,,,0.00,0.000000,,2013-01-30 11:41:00,
2013-01-30 05:02:00,-2.0,-8.0,-100.00,SE,139,4.0,6.0,76,0.00,,,0.00,0.000000,,2013-01-30 12:02:00,
2013-01-30 05:12:00,-2.0,-8.0,-100.00,SE,139,4.0,6.0,76,0.00,,,0.00,0.000000,,2013-01-30 12:12:00,
2013-01-30 05:22:00,-2.0,-8.0,-100.00,SE,139,4.0,6.0,76,0.00,,,0.00,0.000000,,2013-01-30 12:22:00,
2013-01-30 05:32:00,-2.0,-8.0,-100.00,SE,139,4.0,6.0,76,0.00,,,0.00,0.000000,,2013-01-30 12:32:00,
2013-01-30 05:42:00,-2.0,-8.0,-100.00,SE,139,4.0,6.0,76,0.00,,,0.00,0.000000,,2013-01-30 12:42:00,
2013-01-30 06:02:00,-1.0,-7.0,-100.00,SE,142,5.0,9.0,74,0.00,,,0.00,0.000000,,2013-01-30 13:02:00,
2013-01-30 06:12:00,-1.0,-7.0,-100.00,SE,142,5.0,9.0,74,0.00,,,0.00,0.000000,,2013-01-30 13:12:00,
2013-01-30 06:22:00,-1.0,-7.0,-100.00,SE,142,5.0,9.0,74,0.00,,,0.00,0.000000,,2013-01-30 13:22:00,
2013-01-30 06:32:00,-1.0,-7.0,-100.00,SE,142,5.0,9.0,74,0.00,,,0.00,0.000000,,2013-01-30 13:32:00,
2013-01-30 06:42:00,-1.0,-7.0,-100.00,SE,142,5.0,9.0,74,0.00,,,0.00,0.000000,,2013-01-30 13:42:00,
2013-01-30 07:02:00,0.0,-5.0,-100.00,SE,136,4.0,8.0,77,0.00,,,0.00,0.000000,,2013-01-30 14:02:00,
2013-01-30 07:11:00,0.0,-5.0,-100.00,SE,136,4.0,8.0,77,0.00,,,0.00,0.000000,,2013-01-30 14:11:00,
2013-01-30 07:22:00,0.0,-5.0,-100.00,SE,136,4.0,8.0,77,0.00,,,0.00,0.000000,,2013-01-30 14:22:00,
2013-01-30 07:32:00,0.0,-5.0,-100.00,SE,136,4.0,8.0,77,0.00,,,0.00,0.000000,,2013-01-30 14:32:00,
2013-01-30 07:42:00,0.0,-5.0,-100.00,SE,136,4.0,8.0,77,0.00,,,0.00,0.000000,,2013-01-30 14:42:00,
2013-01-30 08:03:00,0.0,-5.0,-100.00,SSE,148,4.0,7.0,79,0.00,,,0.00,0.000000,,2013-01-30 15:03:00,
2013-01-30 08:12:00,0.0,-5.0,-100.00,SSE,148,4.0,7.0,79,0.00,,,0.00,0.000000,,2013-01-30 15:12:00,
2013-01-30 08:22:00,0.0,-5.0,-100.00,SSE,148,4.0,7.0,79,0.00,,,0.00,0.000000,,2013-01-30 15:22:00,
2013-01-30 08:32:00,0.0,-5.0,-100.00,SSE,148,4.0,7.0,79,0.00,,,0.00,0.000000,,2013-01-30 15:32:00,
2013-01-30 08:42:00,0.0,-5.0,-100.00,SSE,148,4.0,7.0,79,0.00,,,0.00,0.000000,,2013-01-30 15:42:00,
2013-01-30 09:03:00,1.0,-4.0,-100.00,ESE,115,1.0,5.0,79,0.00,,,0.00,25.000000,,2013-01-30 16:03:00,
2013-01-30 09:12:00,1.0,-4.0,-100.00,ESE,115,1.0,5.0,79,0.00,,,0.00,25.000000,,2013-01-30 16:12:00,
2013-01-30 09:22:00,1.0,-4.0,-100.00,ESE,115,1.0,5.0,79,0.00,,,0.00,25.000000,,2013-01-30 16:22:00,
2013-01-30 09:32:00,1.0,-4.0,-100.00,ESE,115,1.0,5.0,79,0.00,,,0.00,25.000000,,2013-01-30 16:32:00,
2013-01-30 09:41:00,1.0,-4.0,-100.00,ESE,115,1.0,5.0,79,0.00,,,0.00,25.000000,,2013-01-30 16:41:00,
2013-01-30 10:02:00,4.0,-2.0,-100.00,ENE,67,0.0,4.0,75,0.00,,,0.00,87.000000,,2013-01-30 17:02:00,
2013-01-30 10:12:00,4.0,-2.0,-100.00,ENE,67,0.0,4.0,75,0.00,,,0.00,87.000000,,2013-01-30 17:12:00,
2013-01-30 10:22:00,4.0,-2.0,-100.00,ENE,67,0.0,4.0,75,0.00,,,0.00,87.000000,,2013-01-30 17:22:00,
2013-01-30 10:31:00,4.0,-2.0,-100.00,ENE,67,0.0,4.0,75,0.00,,,0.00,87.000000,,2013-01-30 17:31:00,
2013-01-30 10:41:00,4.0,-2.0,-100.00,ENE,67,0.0,4.0,75,0.00,,,0.00,87.000000,,2013-01-30 17:41:00,
2013-01-30 11:12:00,7.0,-1.0,-100.00,SSW,202,0.0,3.0,70,0.00,,,0.00,154.000000,,2013-01-30 18:12:00,
2013-01-30 11:22:00,7.0,-1.0,-100.00,SSW,202,0.0,3.0,70,0.00,,,0.00,154.000000,,2013-01-30 18:22:00,
2013-01-30 11:33:00,7.0,-1.0,-100.00,SSW,202,0.0,3.0,70,0.00,,,0.00,154.000000,,2013-01-30 18:33:00,
2013-01-30 11:42:00,7.0,-1.0,-100.00,SSW,202,0.0,3.0,70,0.00,,,0.00,154.000000,,2013-01-30 18:42:00,
2013-01-30 12:02:00,5.0,-1.0,-100.00,North,0,4.0,6.0,76,0.00,,,0.00,173.000000,,2013-01-30 19:02:00,
2013-01-30 12:12:00,5.0,-1.0,-100.00,North,0,4.0,6.0,76,0.00,,,0.00,173.000000,,2013-01-30 19:12:00,
2013-01-30 12:22:00,5.0,-1.0,-100.00,North,0,4.0,6.0,76,0.00,,,0.00,173.000000,,2013-01-30 19:22:00,
2013-01-30 12:32:00,5.0,-1.0,-100.00,North,0,4.0,6.0,76,0.00,,,0.00,173.000000,,2013-01-30 19:32:00,
2013-01-30 12:42:00,5.0,-1.0,-100.00,North,0,4.0,6.0,76,0.00,,,0.00,173.000000,,2013-01-30 19:42:00,
2013-01-30 13:03:00,7.0,0.0,-100.00,NW,314,0.0,7.0,73,0.00,,,0.00,228.000000,,2013-01-30 20:03:00,
2013-01-30 13:11:00,7.0,0.0,-100.00,NW,314,0.0,7.0,73,0.00,,,0.00,228.000000,,2013-01-30 20:11:00,
2013-01-30 13:21:00,7.0,0.0,-100.00,NW,314,0.0,7.0,73,0.00,,,0.00,228.000000,,2013-01-30 20:21:00,
2013-01-30 13:32:00,7.0,0.0,-100.00,NW,314,0.0,7.0,73,0.00,,,0.00,228.000000,,2013-01-30 20:32:00,
2013-01-30 13:41:00,7.0,0.0,-100.00,NW,314,0.0,7.0,73,0.00,,,0.00,228.000000,,2013-01-30 20:41:00,
2013-01-30 14:03:00,5.0,0.0,-100.00,NNW,337,5.0,8.0,79,0.00,,,0.00,231.000000,,2013-01-30 21:03:00,
2013-01-30 14:12:00,5.0,0.0,-100.00,NNW,337,5.0,8.0,79,0.00,,,0.00,231.000000,,2013-01-30 21:12:00,
2013-01-30 14:22:00,5.0,0.0,-100.00,NNW,337,5.0,8.0,79,0.00,,,0.00,231.000000,,2013-01-30 21:22:00,
2013-01-30 14:32:00,5.0,0.0,-100.00,NNW,337,5.0,8.0,79,0.00,,,0.00,231.000000,,2013-01-30 21:32:00,
2013-01-30 14:42:00,5.0,0.0,-100.00,NNW,337,5.0,8.0,79,0.00,,,0.00,231.000000,,2013-01-30 21:42:00,
2013-01-30 15:02:00,4.0,-1.0,-100.00,North,3,8.0,11.0,81,0.00,,,0.00,197.000000,,2013-01-30 22:02:00,
2013-01-30 15:11:00,4.0,-1.0,-100.00,North,3,8.0,11.0,81,0.00,,,0.00,197.000000,,2013-01-30 22:11:00,
2013-01-30 15:22:00,4.0,-1.0,-100.00,North,3,8.0,11.0,81,0.00,,,0.00,197.000000,,2013-01-30 22:22:00,
2013-01-30 15:32:00,4.0,-1.0,-100.00,North,3,8.0,11.0,81,0.00,,,0.00,197.000000,,2013-01-30 22:32:00,
2013-01-30 15:41:00,4.0,-1.0,-100.00,North,3,8.0,11.0,81,0.00,,,0.00,197.000000,,2013-01-30 22:41:00,
2013-01-30 16:02:00,4.0,0.0,-100.00,NNW,331,8.0,13.0,83,0.00,,,0.00,145.000000,,2013-01-30 23:02:00,
2013-01-30 16:12:00,4.0,0.0,-100.00,NNW,331,8.0,13.0,83,0.00,,,0.00,145.000000,,2013-01-30 23:12:00,
2013-01-30 16:22:00,4.0,0.0,-100.00,NNW,331,8.0,13.0,83,0.00,,,0.00,145.000000,,2013-01-30 23:22:00,
2013-01-30 16:32:00,4.0,0.0,-100.00,NNW,331,8.0,13.0,83,0.00,,,0.00,145.000000,,2013-01-30 23:32:00,
2013-01-30 16:42:00,4.0,0.0,-100.00,NNW,331,8.0,13.0,83,0.00,,,0.00,145.000000,,2013-01-30 23:42:00,
2013-01-30 17:02:00,4.0,0.0,-100.00,NNW,336,15.0,19.0,83,0.00,,,0.00,53.000000,,2013-01-31 00:02:00,
2013-01-30 17:11:00,4.0,0.0,-100.00,NNW,336,15.0,19.0,83,0.00,,,0.00,53.000000,,2013-01-31 00:11:00,
2013-01-30 17:21:00,4.0,0.0,-100.00,NNW,336,15.0,19.0,83,0.00,,,0.00,53.000000,,2013-01-31 00:21:00,
2013-01-30 17:32:00,4.0,0.0,-100.00,NNW,336,15.0,19.0,83,0.00,,,0.00,53.000000,,2013-01-31 00:32:00,
2013-01-30 17:42:00,4.0,0.0,-100.00,NNW,336,15.0,19.0,83,0.00,,,0.00,53.000000,,2013-01-31 00:42:00,
2013-01-30 18:02:00,5.0,1.0,-100.00,NW,326,18.0,22.0,84,0.00,,,0.00,1.000000,,2013-01-31 01:02:00,
2013-01-30 18:11:00,5.0,1.0,-100.00,NW,326,18.0,22.0,84,0.00,,,0.00,1.000000,,2013-01-31 01:11:00,
2013-01-30 18:21:00,5.0,1.0,-100.00,NW,326,18.0,22.0,84,0.00,,,0.00,1.000000,,2013-01-31 01:21:00,
2013-01-30 18:31:00,5.0,1.0,-100.00,NW,326,18.0,22.0,84,0.00,,,0.00,1.000000,,2013-01-31 01:31:00,
2013-01-30 18:41:00,5.0,1.0,-100.00,NW,326,18.0,22.0,84,0.00,,,0.00,1.000000,,2013-01-31 01:41:00,
2013-01-30 19:01:00,4.0,0.0,-100.00,NNW,340,21.0,30.0,82,0.00,,,0.00,0.000000,,2013-01-31 02:01:00,
2013-01-30 19:11:00,4.0,0.0,-100.00,NNW,340,21.0,30.0,82,0.00,,,0.00,0.000000,,2013-01-31 02:11:00,
2013-01-30 19:21:00,4.0,0.0,-100.00,NNW,340,21.0,30.0,82,0.00,,,0.00,0.000000,,2013-01-31 02:21:00,
2013-01-30 19:32:00,4.0,0.0,-100.00,NNW,340,21.0,30.0,82,0.00,,,0.00,0.000000,,2013-01-31 02:32:00,
2013-01-30 19:41:00,4.0,0.0,-100.00,NNW,340,21.0,30.0,82,0.00,,,0.00,0.000000,,2013-01-31 02:41:00,
2013-01-30 20:02:00,-1.0,-5.0,-100.00,North,351,27.0,37.0,82,0.00,,,0.00,0.000000,,2013-01-31 03:02:00,
2013-01-30 20:11:00,-1.0,-5.0,-100.00,North,351,27.0,37.0,82,0.00,,,0.00,0.000000,,2013-01-31 03:11:00,
2013-01-30 20:21:00,-1.0,-5.0,-100.00,North,351,27.0,37.0,82,0.00,,,0.00,0.000000,,2013-01-31 03:21:00,
2013-01-30 20:32:00,-1.0,-5.0,-100.00,North,351,27.0,37.0,82,0.00,,,0.00,0.000000,,2013-01-31 03:32:00,
2013-01-30 20:41:00,-1.0,-5.0,-100.00,North,351,27.0,37.0,82,0.00,,,0.00,0.000000,,2013-01-31 03:41:00,
2013-01-30 21:02:00,-3.0,-7.0,-100.00,NNW,345,23.0,37.0,81,0.00,,,0.00,0.000000,,2013-01-31 04:02:00,
2013-01-30 21:11:00,-3.0,-7.0,-100.00,NNW,345,23.0,37.0,81,0.00,,,0.00,0.000000,,2013-01-31 04:11:00,
2013-01-30 21:22:00,-3.0,-7.0,-100.00,NNW,345,23.0,37.0,81,0.00,,,0.00,0.000000,,2013-01-31 04:22:00,
2013-01-30 21:31:00,-3.0,-7.0,-100.00,NNW,345,23.0,37.0,81,0.00,,,0.00,0.000000,,2013-01-31 04:31:00,
2013-01-30 21:41:00,-3.0,-7.0,-100.00,NNW,345,23.0,37.0,81,0.00,,,0.00,0.000000,,2013-01-31 04:41:00,
2013-01-30 22:03:00,-5.0,-12.0,-100.00,NNW,336,27.0,36.0,72,0.00,,,0.00,0.000000,,2013-01-31 05:03:00,
2013-01-30 22:11:00,-5.0,-12.0,-100.00,NNW,336,27.0,36.0,72,0.00,,,0.00,0.000000,,2013-01-31 05:11:00,
2013-01-30 22:21:00,-5.0,-12.0,-100.00,NNW,336,27.0,36.0,72,0.00,,,0.00,0.000000,,2013-01-31 05:21:00,
2013-01-30 22:31:00,-5.0,-12.0,-100.00,NNW,336,27.0,36.0,72,0.00,,,0.00,0.000000,,2013-01-31 05:31:00,
2013-01-30 22:41:00,-5.0,-12.0,-100.00,NNW,336,27.0,36.0,72,0.00,,,0.00,0.000000,,2013-01-31 05:41:00,